FW1692 Weather Reports


time (UTC)temp
C
wind
direction
speed
KPH
gust
KPH
rain 1hr
cm
rain 24hr
cm
rain mn
cm
humidity
%
barometer
mb
20260508115557 15 61 3.2 4.8 0.00 0.00 0.00 66 1019.5
20260508115057 15 116 1.6 6.4 0.00 0.00 0.00 66 1019.5
20260508114332 15 114 0.0 6.4 0.00 0.00 0.00 66 1019.4
20260508113830 15 128 1.6 6.4 0.00 0.00 0.00 68 1019.5
20260508113332 15 161 0.0 3.2 0.00 0.00 0.00 67 1019.4
20260508112832 15 161 0.0 3.2 0.00 0.00 0.00 67 1019.4
20260508112333 15 161 1.6 3.2 0.00 0.00 0.00 68 1019.5
20260508111831 15 94 1.6 3.2 0.00 0.00 0.00 68 1019.5
20260508111551 15 92 1.6 4.8 0.00 0.00 0.00 69 1019.5
20260508110831 15 75 1.6 4.8 0.00 0.00 0.00 69 1019.5
20260508110331 15 117 1.6 8.0 0.00 0.00 0.00 69 1019.5
20260508105831 15 104 0.0 8.0 0.00 0.00 0.00 68 1019.4
20260508105330 15 94 3.2 8.0 0.00 0.00 0.00 69 1019.5
20260508104831 15 96 1.6 4.8 0.00 0.00 0.00 69 1019.4
20260508104331 15 99 1.6 6.4 0.00 0.00 0.00 70 1019.4
20260508103831 15 197 3.2 6.4 0.00 0.00 0.00 71 1019.4
20260508103331 15 107 3.2 6.4 0.00 0.00 0.00 70 1019.5
20260508102831 15 186 0.0 4.8 0.00 0.00 0.00 71 1019.4
20260508102331 15 120 1.6 4.8 0.00 0.00 0.00 72 1019.6
20260508101831 15 118 1.6 4.8 0.00 0.00 0.00 72 1019.5
20260508101332 15 114 1.6 4.8 0.00 0.00 0.00 74 1019.6
20260508101050 15 92 3.2 6.4 0.00 0.00 0.00 75 1019.7
20260508100554 14 97 3.2 6.4 0.00 0.00 0.00 76 1019.7
20260508095830 14 172 1.6 4.8 0.00 0.00 0.00 76 1019.6
20260508095331 14 157 1.6 9.7 0.00 0.00 0.00 76 1019.6
20260508095055 14 226 3.2 9.7 0.00 0.00 0.00 77 1019.7
20260508094331 13 131 1.6 4.8 0.00 0.00 0.00 77 1019.7
20260508094053 13 149 1.6 4.8 0.00 0.00 0.00 78 1019.7
20260508093332 13 158 1.6 4.8 0.00 0.00 0.00 79 1019.6
20260508093101 13 142 0.0 6.4 0.00 0.00 0.00 80 1019.6
20260508092332 13 120 3.2 6.4 0.00 0.00 0.00 79 1019.6
20260508092056 12 131 1.6 4.8 0.00 0.00 0.00 80 1019.5
20260508091554 12 103 1.6 6.4 0.00 0.00 0.00 81 1019.5
20260508090824 12 116 1.6 6.4 0.00 0.00 0.00 81 1019.6
20260508090322 12 131 1.6 4.8 0.00 0.00 0.00 81 1019.4
20260508085820 12 152 0.0 4.8 0.00 0.00 0.00 81 1019.4
20260508085316 12 152 0.0 4.8 0.00 0.00 0.00 81 1019.3
20260508084815 12 142 1.6 4.8 0.00 0.00 0.00 81 1019.4
20260508084540 12 137 0.0 3.2 0.00 0.00 0.00 81 1019.3
20260508083814 12 137 1.6 3.2 0.00 0.00 0.00 81 1019.3
20260508083313 12 135 0.0 6.4 0.00 0.00 0.00 81 1019.2
20260508083037 12 107 3.2 6.4 0.00 0.00 0.00 81 1019.2
20260508082314 12 114 0.0 4.8 0.00 0.00 0.00 82 1019.2
20260508081813 12 113 1.6 8.0 0.00 0.00 0.00 82 1019.2
20260508081313 12 104 0.0 8.0 0.00 0.00 0.00 83 1019.2
20260508080812 12 54 3.2 6.4 0.00 0.00 0.00 84 1019.3
20260508080312 12 117 3.2 6.4 0.00 0.00 0.00 85 1019.3
20260508075810 12 125 1.6 4.8 0.00 0.00 0.00 87 1019.3
20260508075308 11 168 1.6 4.8 0.00 0.00 0.00 88 1019.1
20260508074806 11 135 1.6 4.8 0.00 0.00 0.00 89 1019.2
20260508074304 11 165 1.6 3.2 0.00 0.00 0.00 91 1019.2
20260508073805 10 195 1.6 1.6 0.00 0.00 0.00 91 1019.2
20260508073303 10 195 0.0 3.2 0.00 0.00 0.00 91 1019.2
20260508072802 10 195 1.6 3.2 0.00 0.00 0.00 92 1019.2
20260508072306 10 195 1.6 3.2 0.00 0.00 0.00 92 1019.2
20260508072245 10 199 0.0 0.0 0.00 0.00 0.00 93 1019.2
20260508071302 9 199 0.0 0.0 0.00 0.00 0.00 93 1019.1
20260508070804 9 199 0.0 0.0 0.00 0.00 0.00 93 1019.0
20260508070302 9 199 0.0 0.0 0.00 0.00 0.00 93 1018.9
20260508065804 8 199 0.0 0.0 0.00 0.00 0.00 93 1018.9
20260508065306 8 199 0.0 0.0 0.00 0.00 0.00 93 1019.0
20260508064803 8 199 0.0 0.0 0.00 0.00 0.00 93 1019.0
20260508064302 8 199 0.0 1.6 0.00 0.00 0.00 94 1018.9
20260508063804 8 199 0.0 3.2 0.00 0.00 0.00 94 1018.8
20260508063302 8 199 0.0 3.2 0.00 0.00 0.00 94 1018.6
20260508062803 8 196 0.0 0.0 0.00 0.00 0.00 94 1018.6
20260508062526 8 196 0.0 0.0 0.00 0.00 0.00 94 1018.6
20260508061801 8 196 0.0 0.0 0.00 0.00 0.00 94 1018.5
20260508061301 8 196 0.0 0.0 0.00 0.00 0.00 94 1018.4
20260508060802 8 196 0.0 0.0 0.00 0.00 0.00 94 1018.4
20260508060300 7 196 0.0 0.0 0.00 0.00 0.00 94 1018.4
20260508055800 7 196 0.0 0.0 0.00 0.00 0.00 94 1018.4
20260508055300 7 196 0.0 0.0 0.00 0.00 0.00 94 1018.4
20260508054801 7 196 0.0 0.0 0.00 0.00 0.00 94 1018.4
20260508054300 7 196 0.0 0.0 0.00 0.00 0.00 93 1018.4
20260508053800 7 196 0.0 0.0 0.00 0.00 0.00 93 1018.4
20260508053300 7 196 0.0 0.0 0.00 0.00 0.00 93 1018.3
20260508052800 7 196 0.0 1.6 0.00 0.00 0.00 93 1018.3
20260508052259 7 196 0.0 1.6 0.00 0.00 0.00 93 1018.2
20260508051759 7 190 0.0 1.6 0.00 0.00 0.00 93 1018.1
20260508051526 7 190 0.0 1.6 0.00 0.00 0.00 93 1018.2
20260508050759 7 190 0.0 1.6 0.00 0.00 0.00 93 1018.2
20260508050301 7 190 0.0 3.2 0.00 0.00 0.00 93 1018.2
20260508045759 7 190 0.0 3.2 0.00 0.00 0.00 93 1018.0
20260508045258 7 192 0.0 1.6 0.00 0.00 0.00 93 1018.1
20260508044759 7 192 0.0 1.6 0.00 0.00 0.00 93 1018.0
20260508044258 7 193 0.0 0.0 0.00 0.00 0.00 93 1017.9
20260508043759 7 193 0.0 0.0 0.00 0.00 0.00 92 1017.9
20260508043259 7 193 0.0 0.0 0.00 0.00 0.00 92 1018.0
20260508042758 7 193 0.0 1.6 0.00 0.00 0.00 92 1018.1
20260508042258 7 193 0.0 1.6 0.00 0.00 0.00 92 1018.0
20260508041757 7 193 0.0 0.0 0.00 0.00 0.00 92 1018.1
20260508041258 7 193 0.0 0.0 0.00 0.00 0.00 92 1018.1
20260508041028 7 193 0.0 0.0 0.00 0.00 0.00 92 1018.0
20260508040258 7 193 0.0 0.0 0.00 0.00 0.00 92 1018.0
20260508035757 7 193 0.0 0.0 0.00 0.00 0.00 92 1017.9
20260508035257 7 193 0.0 0.0 0.00 0.00 0.00 92 1017.9
20260508034757 7 193 0.0 0.0 0.00 0.00 0.00 92 1018.0
20260508034739 7 193 0.0 0.0 0.00 0.00 0.00 92 1018.0
20260508033757 7 193 0.0 0.0 0.00 0.00 0.00 92 1018.0
20260508033529 7 193 0.0 0.0 0.00 0.00 0.00 91 1018.0
20260508032757 7 193 0.0 0.0 0.00 0.00 0.00 92 1018.0
20260508032256 7 193 0.0 0.0 0.00 0.00 0.00 91 1018.0
20260508031757 7 193 0.0 0.0 0.00 0.00 0.00 91 1018.0
20260508031519 7 193 0.0 0.0 0.00 0.00 0.00 91 1018.0
20260508031020 6 193 0.0 0.0 0.00 0.00 0.00 91 1018.0
20260508030256 7 193 0.0 0.0 0.00 0.00 0.00 91 1018.0
20260508025756 7 193 0.0 0.0 0.00 0.00 0.00 91 1018.0
20260508025519 7 193 0.0 0.0 0.00 0.00 0.00 91 1017.9
20260508025020 7 193 0.0 0.0 0.00 0.00 0.00 90 1018.0
20260508024256 7 193 0.0 0.0 0.00 0.00 0.00 90 1017.9
20260508023754 7 193 0.0 0.0 0.00 0.00 0.00 90 1017.9
20260508023256 7 193 0.0 0.0 0.00 0.00 0.00 90 1018.0
20260508022754 7 193 0.0 0.0 0.00 0.00 0.00 90 1017.9
20260508022255 7 193 0.0 0.0 0.00 0.00 0.00 90 1018.0
20260508021754 7 193 0.0 0.0 0.00 0.00 0.00 90 1017.9
20260508021255 7 193 0.0 0.0 0.00 0.00 0.00 90 1018.0
20260508021239 7 193 0.0 0.0 0.00 0.00 0.00 90 1018.0
20260508020255 7 193 0.0 0.0 0.00 0.00 0.00 89 1017.9
20260508015753 7 193 0.0 0.0 0.00 0.00 0.00 89 1017.9
20260508015255 7 193 0.0 0.0 0.00 0.00 0.00 89 1017.9
20260508014753 7 193 0.0 0.0 0.00 0.00 0.00 89 1017.8
20260508014254 7 193 0.0 0.0 0.00 0.00 0.00 89 1017.9
20260508013753 7 193 0.0 0.0 0.00 0.00 0.00 89 1017.8
20260508013255 8 193 0.0 0.0 0.00 0.00 0.00 89 1017.8
20260508012752 8 193 0.0 0.0 0.00 0.00 0.00 89 1017.9
20260508012254 8 193 0.0 0.0 0.00 0.00 0.00 89 1017.9
20260508011753 8 193 0.0 0.0 0.00 0.00 0.00 89 1017.9
20260508011255 8 193 0.0 0.0 0.00 0.00 0.00 88 1017.9
20260508010753 8 193 0.0 0.0 0.00 0.00 0.00 88 1017.8
20260508010255 8 193 0.0 0.0 0.00 0.00 0.00 88 1017.8
20260508005753 8 193 0.0 0.0 0.00 0.00 0.00 88 1017.7
20260508005256 8 193 0.0 0.0 0.00 0.00 0.00 88 1017.8
20260508004751 8 193 0.0 0.0 0.00 0.00 0.00 89 1017.9
20260508004522 8 193 0.0 0.0 0.00 0.00 0.00 89 1017.8
20260508003753 8 193 0.0 0.0 0.00 0.00 0.00 89 1017.9
20260508003517 8 193 0.0 0.0 0.00 0.00 0.00 89 1017.9
20260508003015 8 193 0.0 0.0 0.00 0.00 0.00 88 1017.8
20260508002254 8 193 0.0 0.0 0.00 0.00 0.00 88 1017.9
20260508001750 8 193 0.0 0.0 0.00 0.00 0.00 88 1017.9
20260508001738 8 193 0.0 0.0 0.00 0.00 0.00 88 1018.1
20260508000751 8 193 0.0 0.0 0.00 0.00 0.00 88 1018.1
20260508000253 8 193 0.0 0.0 0.00 0.00 0.00 87 1018.0
20260507235750 8 193 0.0 0.0 0.00 0.00 0.00 87 1018.0
20260507235251 8 193 0.0 1.6 0.00 0.00 0.00 87 1018.0
20260507234750 8 193 1.6 1.6 0.00 0.00 0.00 87 1017.9
20260507234514 8 193 0.0 0.0 0.00 0.00 0.00 87 1017.9
20260507233750 8 193 0.0 0.0 0.00 0.00 0.00 86 1018.0
20260507233251 8 193 0.0 0.0 0.00 0.00 0.00 86 1017.9
20260507232749 8 193 0.0 0.0 0.00 0.00 0.00 85 1017.9
20260507232251 8 193 0.0 0.0 0.00 0.00 0.00 85 1017.9
20260507231749 8 193 0.0 0.0 0.00 0.00 0.00 85 1018.0
20260507231252 8 193 0.0 1.6 0.00 0.00 0.00 84 1018.0
20260507230749 8 193 0.0 1.6 0.00 0.00 0.00 84 1017.9
20260507230250 9 193 0.0 0.0 0.00 0.00 0.00 84 1017.9
20260507225748 9 193 0.0 0.0 0.00 0.00 0.00 83 1017.9
20260507225514 9 193 0.0 0.0 0.00 0.00 0.00 83 1018.0
20260507224749 9 193 0.0 0.0 0.00 0.00 0.00 83 1018.0
20260507224249 9 193 0.0 0.0 0.00 0.00 0.00 82 1018.0
20260507223748 10 193 0.0 0.0 0.00 0.00 0.00 82 1018.0
20260507223249 10 193 0.0 0.0 0.00 0.00 0.00 81 1017.8
20260507223233 10 193 0.0 0.0 0.00 0.00 0.00 81 1017.8
20260507222248 10 193 0.0 0.0 0.00 0.00 0.00 81 1017.8
20260507221748 10 193 0.0 0.0 0.00 0.00 0.00 80 1017.8
20260507221513 10 193 0.0 0.0 0.00 0.00 0.00 80 1017.7
20260507220748 10 193 0.0 0.0 0.00 0.00 0.00 80 1017.7
20260507220248 10 193 0.0 0.0 0.00 0.00 0.00 79 1017.7
20260507220010 11 193 0.0 0.0 0.00 0.00 0.00 79 1017.8
20260507215247 11 193 0.0 0.0 0.00 0.00 0.00 79 1017.9
20260507214748 11 193 0.0 1.6 0.00 0.00 0.00 78 1017.7
20260507214515 11 193 0.0 1.6 0.00 0.00 0.00 78 1017.8
20260507213747 11 193 0.0 3.2 0.00 0.00 0.00 78 1017.8
20260507213509 11 193 0.0 4.8 0.00 0.00 0.00 78 1017.8
20260507212747 11 193 0.0 4.8 0.00 0.00 0.00 78 1017.8
20260507212247 11 193 0.0 0.0 0.00 0.00 0.00 78 1017.7
20260507212009 11 193 0.0 1.6 0.00 0.00 0.00 78 1017.7
20260507211246 11 193 0.0 1.6 0.00 0.00 0.00 77 1017.7
20260507210746 11 193 0.0 3.2 0.00 0.00 0.00 77 1017.7
20260507210247 11 193 0.0 4.8 0.00 0.00 0.00 77 1017.6
20260507205746 11 193 1.6 4.8 0.00 0.00 0.00 76 1017.6
20260507205245 11 137 0.0 4.8 0.00 0.00 0.00 76 1017.5
20260507204745 12 137 0.0 4.8 0.00 0.00 0.00 77 1017.4
20260507204245 12 244 0.0 3.2 0.00 0.00 0.00 76 1017.4
20260507203745 12 257 0.0 1.6 0.00 0.00 0.00 76 1017.4
20260507203245 12 257 0.0 1.6 0.00 0.00 0.00 76 1017.4
20260507202745 12 257 0.0 3.2 0.00 0.00 0.00 76 1017.3
20260507202245 12 257 1.6 3.2 0.00 0.00 0.00 75 1017.3
20260507202008 12 257 1.6 3.2 0.00 0.00 0.00 75 1017.2
20260507201245 12 269 0.0 3.2 0.00 0.00 0.00 76 1017.3
20260507200745 12 269 0.0 3.2 0.00 0.00 0.00 76 1017.2
20260507200244 12 269 0.0 3.2 0.00 0.00 0.00 75 1017.1
20260507195745 12 271 0.0 3.2 0.00 0.00 0.00 74 1017.2
20260507195246 12 271 1.6 3.2 0.00 0.00 0.00 75 1017.0
20260507194745 12 275 0.0 0.0 0.00 0.00 0.00 74 1017.0
20260507194241 12 275 0.0 0.0 0.00 0.00 0.00 74 1017.0
20260507193738 12 275 0.0 1.6 0.00 0.00 0.00 73 1017.1
20260507193238 13 275 0.0 3.2 0.00 0.00 0.00 72 1017.0
20260507192732 13 275 0.0 6.4 0.00 0.00 0.00 72 1017.0
20260507192231 13 275 1.6 6.4 0.00 0.00 0.00 71 1017.0
20260507191952 13 235 3.2 6.4 0.00 0.00 0.00 70 1017.1
20260507191231 13 259 3.2 8.0 0.00 0.00 0.00 69 1017.0
20260507191004 13 230 3.2 8.0 0.00 0.00 0.00 68 1016.9
20260507190452 13 171 1.6 4.8 0.00 0.00 0.00 67 1016.9
20260507185731 13 216 1.6 4.8 0.00 0.00 0.00 66 1016.9
20260507185231 13 189 1.6 4.8 0.00 0.00 0.00 65 1016.9
20260507184731 13 189 1.6 6.4 0.00 0.00 0.00 64 1016.8
20260507184231 13 189 3.2 6.4 0.00 0.00 0.00 63 1016.8
20260507183951 13 161 1.6 4.8 0.00 0.00 0.00 63 1016.7
20260507183230 13 161 1.6 3.2 0.00 0.00 0.00 62 1016.7
20260507182732 13 161 1.6 4.8 0.00 0.00 0.00 62 1016.6
20260507182232 14 159 1.6 4.8 0.00 0.00 0.00 62 1016.6
20260507181732 14 147 1.6 4.8 0.00 0.00 0.00 61 1016.5
20260507181232 14 155 1.6 4.8 0.00 0.00 0.00 61 1016.4
20260507180732 14 155 1.6 6.4 0.00 0.00 0.00 60 1016.4
20260507180449 14 155 3.2 8.0 0.00 0.00 0.00 61 1016.4
20260507175731 14 154 0.0 8.0 0.00 0.00 0.00 60 1016.4
20260507175231 14 212 1.6 6.4 0.00 0.00 0.00 60 1016.4
20260507174731 14 144 1.6 8.0 0.00 0.00 0.00 59 1016.5
20260507174215 14 217 3.2 8.0 0.00 0.00 0.00 58 1016.5
20260507173711 14 255 1.6 9.7 0.00 0.00 0.00 59 1016.5
20260507173211 14 185 3.2 9.7 0.00 0.00 0.00 58 1016.4
20260507172710 14 258 3.2 9.7 0.00 0.00 0.00 59 1016.5
20260507172430 15 207 3.2 9.7 0.00 0.00 0.00 57 1016.4
20260507171925 15 140 3.2 16.1 0.00 0.00 0.00 57 1016.5
20260507171205 15 293 1.6 16.1 0.00 0.00 0.00 57 1016.4
20260507170706 15 173 3.2 9.7 0.00 0.00 0.00 57 1016.4
20260507170205 15 206 1.6 11.3 0.00 0.00 0.00 57 1016.5
20260507165703 15 176 4.8 11.3 0.00 0.00 0.00 56 1016.4
20260507165204 15 204 3.2 11.3 0.00 0.00 0.00 56 1016.4
20260507164703 15 230 4.8 9.7 0.00 0.00 0.00 57 1016.5
20260507164202 15 161 3.2 8.0 0.00 0.00 0.00 57 1016.4
20260507163703 15 131 1.6 9.7 0.00 0.00 0.00 56 1016.4
20260507163203 15 207 3.2 16.1 0.00 0.00 0.00 55 1016.4
20260507162703 15 149 6.4 16.1 0.00 0.00 0.00 54 1016.5
20260507162203 15 121 6.4 19.3 0.00 0.00 0.00 53 1016.5
20260507161702 15 138 3.2 19.3 0.00 0.00 0.00 53 1016.5
20260507161202 15 103 4.8 11.3 0.00 0.00 0.00 55 1016.5
20260507160703 15 59 3.2 9.7 0.00 0.00 0.00 56 1016.5
20260507160203 15 227 3.2 8.0 0.00 0.00 0.00 57 1016.5
20260507155703 15 189 3.2 8.0 0.00 0.00 0.00 56 1016.6
20260507155203 15 183 3.2 14.5 0.00 0.00 0.00 57 1016.5
20260507154704 15 128 3.2 14.5 0.00 0.00 0.00 57 1016.5
20260507154203 15 117 1.6 9.7 0.00 0.00 0.00 57 1016.5
20260507153704 15 183 3.2 11.3 0.00 0.00 0.00 57 1016.7
20260507153203 15 128 4.8 11.3 0.00 0.00 0.00 57 1016.7
20260507152704 15 151 1.6 9.7 0.00 0.00 0.00 56 1016.7
20260507152203 15 125 1.6 6.4 0.00 0.00 0.00 56 1016.7
20260507151705 15 213 3.2 8.0 0.00 0.00 0.00 55 1016.8
20260507151203 15 224 3.2 8.0 0.00 0.00 0.00 55 1016.8
20260507150704 16 127 1.6 14.5 0.00 0.00 0.00 56 1016.7
20260507150205 16 195 6.4 14.5 0.00 0.00 0.00 55 1016.8
20260507145703 16 147 1.6 16.1 0.00 0.00 0.00 57 1016.9
20260507145204 16 199 3.2 16.1 0.00 0.00 0.00 55 1016.7
20260507144703 16 104 4.8 11.3 0.00 0.00 0.00 57 1016.8
20260507144205 16 138 1.6 9.7 0.00 0.00 0.00 57 1016.8
20260507143704 16 99 3.2 19.3 0.00 0.00 0.00 54 1016.9
20260507143427 16 220 3.2 19.3 0.00 0.00 0.00 55 1017.0
20260507142703 16 180 4.8 16.1 0.00 0.00 0.00 57 1017.0
20260507142203 16 159 3.2 9.7 0.00 0.00 0.00 57 1017.1
20260507141925 16 141 3.2 8.0 0.00 0.00 0.00 57 1017.1
20260507141203 16 89 4.8 8.0 0.00 0.00 0.00 58 1017.2
20260507140926 16 148 3.2 14.5 0.00 0.00 0.00 57 1017.2
20260507140204 16 147 3.2 14.5 0.00 0.00 0.00 55 1017.3
20260507135704 16 235 6.4 14.5 0.00 0.00 0.00 57 1017.3
20260507135203 15 217 6.4 11.3 0.00 0.00 0.00 59 1017.4
20260507134703 15 164 3.2 9.7 0.00 0.00 0.00 58 1017.4
20260507134204 16 148 4.8 11.3 0.00 0.00 0.00 57 1017.5
20260507133703 16 219 1.6 11.3 0.00 0.00 0.00 59 1017.5
20260507133204 15 123 4.8 9.7 0.00 0.00 0.00 59 1017.5
20260507132705 15 189 3.2 11.3 0.00 0.00 0.00 60 1017.5
20260507132204 15 131 3.2 11.3 0.00 0.00 0.00 61 1017.5
20260507131704 15 183 3.2 14.5 0.00 0.00 0.00 59 1017.6
20260507131203 15 75 6.4 14.5 0.00 0.00 0.00 59 1017.8
20260507130703 15 206 4.8 11.3 0.00 0.00 0.00 61 1017.7
20260507130203 15 73 4.8 9.7 0.00 0.00 0.00 61 1017.8
20260507125704 15 94 3.2 9.7 0.00 0.00 0.00 61 1017.7
20260507125204 15 207 4.8 9.7 0.00 0.00 0.00 62 1017.6
20260507124932 15 165 3.2 9.7 0.00 0.00 0.00 63 1017.7
20260507124204 14 97 4.8 9.7 0.00 0.00 0.00 63 1017.8
20260507123704 14 145 4.8 11.3 0.00 0.00 0.00 63 1017.8
20260507123203 14 182 4.8 16.1 0.00 0.00 0.00 63 1017.8
20260507122705 14 117 6.4 16.1 0.00 0.00 0.00 63 1017.9
20260507122204 14 183 6.4 16.1 0.00 0.00 0.00 63 1017.8
20260507121703 14 140 3.2 9.7 0.00 0.00 0.00 66 1017.9
20260507121203 13 219 3.2 9.7 0.00 0.00 0.00 67 1017.8
20260507120936 13 197 3.2 9.7 0.00 0.00 0.00 67 1017.9
20260507120203 13 131 3.2 8.0 0.00 0.00 0.00 67 1018.0
20260507115927 13 97 3.2 14.5 0.00 0.00 0.00 69 1018.0